Starlink 6341

operational
NORAD ID: 56786 Int'l Des: 2023-078 Owner: SPXS Country: US Constellation: starlink
LEOCIRCULAR

关于 Starlink 6341

正在加载描述...

实时位置

正在加载3D地球...

即将过境

高度历史

Altitude vs Time

uPlot chart will show altitude changes over time

两行轨道根数

1 56786U 23078V 26034.45184203 .00000289 00000-0 32043-4 0 9999
2 56786 69.9995 50.8386 0003108 269.9343 90.1459 14.98332349148040
Epoch: Feb 3, 2026 • Age: 7 hours

当前状态

高度 585.7 km
速度 7.57 km/s
星下点 -41.06°S, 159.25°W
发射日期 May 31, 2023
运行时间 2.6 years
类型 internet

技术详情

分类 Payload
质量 305.00 kg
干质量 290.00 kg
总质量 305.00 kg
长度 0.20 m
直径 2.80 m
跨度 9.00 m
形状 Box + pan
制造商 SPXS
平台类型 Starlink
阶段状态 In Orbit
所有者/国家 SPXS/US

大型星座

Loading constellations...